Clemson, SC

10:53 PM EDT on September 20, 2017 (GMT -0400)
Oconee County Regional

Weather History for KCEU - July, 2013

Change the Weather History Date:

Friday, July 5, 2013

  Actual Average Record
Temperature  
Mean Temperature 78 °F -  
Max Temperature 87 °F 88 °F 101 °F (1954)
Min Temperature 71 °F 66 °F 49 °F (1933)
Cooling Degree Days 12    
Growing Degree Days 28 (Base 50)    
Moisture  
Dew Point 68 °F    
Average Humidity 81    
Maximum Humidity 89    
Minimum Humidity 53    
Precipitation  
Precipitation 0.13 in - - ()
Sea Level Pressure  
Sea Level Pressure 30.22 in    
Wind  
Wind Speed 2 mph (ENE)    
Max Wind Speed 7 mph    
Max Gust Speed -    
Visibility 9 miles    
Events Rain , Thunderstorm    
Averages and records for this station are not official NWS values.
T = Trace of Precipitation, MM = Missing Value Source: NWS Daily Summary

Daily Weather History Graph

Daily Weather History Graph

Search for Another Location

Airport or City:

Trip Planner

Search our weather history database for the weather conditions in past years. The results will help you decide how hot, cold, wet, or windy it might be!

Date:

Astronomy

Jul. 05, 2013 Rise Set
Actual Time 6:24 AM EDT 8:48 PM EDT
Civil Twilight 5:54 AM EDT 9:17 PM EDT
Nautical Twilight 5:18 AM EDT 9:53 PM EDT
Astronomical Twilight 4:39 AM EDT 10:32 PM EDT
Moon 4:20 AM EDT (7/5) 6:44 PM EDT (7/5)
Length of Visible Light 15h 22m
Length of Day
14h 23m
Waning Crescent, 6% of the Moon is Illuminated
Jul 5
Waning Crescent
Jul 8
New
Jul 15
First Quarter
Jul 22
Full
Jul 29
Last Quarter

Hourly Weather History & Observations

Time (EDT) Temp. Heat Index Dew Point Humidity Pressure Visibility Wind Dir Wind Speed Gust Speed Precip Events Conditions
12:05 AM 71.6 °F - 68.0 °F 88% 30.23 in 7.0 mi East 3.5 mph - N/A   Overcast
12:18 AM 71.6 °F - 68.0 °F 88% 30.24 in 8.0 mi Calm Calm - N/A   Overcast
12:44 AM 71.6 °F - 68.0 °F 88% 30.23 in 8.0 mi Calm Calm - N/A   Overcast
12:54 AM 72.0 °F - 68.0 °F 87% 30.20 in 7.0 mi Calm Calm - N/A   Overcast
1:32 AM 71.6 °F - 68.0 °F 88% 30.23 in 9.0 mi Variable 3.5 mph - N/A   Overcast
1:54 AM 72.0 °F - 68.0 °F 87% 30.20 in 10.0 mi SE 3.5 mph - N/A   Overcast
2:18 AM 71.6 °F - 68.0 °F 88% 30.22 in 10.0 mi Calm Calm - 0.00 in Rain Light Rain
2:54 AM 72.0 °F - 68.0 °F 87% 30.19 in 10.0 mi Calm Calm - 0.01 in   Overcast
3:43 AM 71.6 °F - 68.0 °F 88% 30.21 in 9.0 mi Calm Calm - N/A   Overcast
3:54 AM 72.0 °F - 68.0 °F 87% 30.18 in 10.0 mi East 3.5 mph - N/A   Overcast
4:54 AM 72.0 °F - 68.0 °F 87% 30.18 in 10.0 mi Calm Calm - N/A   Overcast
5:46 AM 71.6 °F - 68.0 °F 88% 30.20 in 9.0 mi Calm Calm - N/A   Overcast
5:54 AM 72.0 °F - 68.0 °F 87% 30.18 in 9.0 mi Calm Calm - N/A   Overcast
6:19 AM 71.6 °F - 68.0 °F 88% 30.22 in 10.0 mi Calm Calm - N/A   Overcast
6:54 AM 72.0 °F - 68.0 °F 87% 30.21 in 8.0 mi Calm Calm - N/A   Overcast
7:54 AM 72.0 °F - 68.0 °F 87% 30.23 in 10.0 mi Calm Calm - N/A   Overcast
8:06 AM 71.6 °F - 68.0 °F 88% 30.25 in 9.0 mi East 4.6 mph - N/A   Overcast
8:17 AM 71.6 °F - 68.0 °F 88% 30.25 in 7.0 mi East 3.5 mph - N/A   Overcast
8:27 AM 71.6 °F - 68.0 °F 88% 30.26 in 9.0 mi Calm Calm - N/A   Overcast
8:54 AM 73.0 °F - 68.0 °F 84% 30.23 in 10.0 mi Calm Calm - N/A   Overcast
9:16 AM 73.4 °F - 68.0 °F 83% 30.26 in 10.0 mi Calm Calm - N/A   Overcast
9:31 AM 75.2 °F - 69.8 °F 83% 30.26 in 10.0 mi Calm Calm - N/A   Overcast
9:41 AM 75.2 °F - 68.0 °F 78% 30.26 in 10.0 mi Calm Calm - N/A   Mostly Cloudy
9:45 AM 75.2 °F - 69.8 °F 83% 30.26 in 10.0 mi Calm Calm - N/A   Mostly Cloudy
9:54 AM 77.0 °F - 69.1 °F 76% 30.23 in 10.0 mi Variable 3.5 mph - N/A   Mostly Cloudy
10:09 AM 77.0 °F - 68.0 °F 74% 30.26 in 10.0 mi ENE 3.5 mph - N/A   Mostly Cloudy
10:26 AM 77.0 °F - 68.0 °F 74% 30.26 in 10.0 mi NE 3.5 mph - N/A   Overcast
10:40 AM 77.0 °F - 66.2 °F 69% 30.26 in 10.0 mi Calm Calm - N/A   Overcast
10:54 AM 77.0 °F - 66.0 °F 69% 30.24 in 10.0 mi East 3.5 mph - N/A   Overcast
11:54 AM 78.1 °F - 66.9 °F 68% 30.24 in 10.0 mi East 3.5 mph - N/A   Overcast
12:54 PM 81.0 °F 83.3 °F 66.9 °F 62% 30.23 in 10.0 mi Calm Calm - N/A   Mostly Cloudy
1:54 PM 82.9 °F 85.8 °F 68.0 °F 60% 30.21 in 10.0 mi NE 5.8 mph - N/A   Mostly Cloudy
2:01 PM 82.4 °F 85.4 °F 68.0 °F 62% 30.24 in 10.0 mi ENE 3.5 mph - N/A   Mostly Cloudy
2:08 PM 82.4 °F 84.6 °F 66.2 °F 58% 30.24 in 10.0 mi Variable 5.8 mph - N/A   Scattered Clouds
2:54 PM 84.0 °F 86.5 °F 66.9 °F 56% 30.19 in 10.0 mi Calm Calm - N/A   Scattered Clouds
3:54 PM 84.9 °F 87.1 °F 66.0 °F 53% 30.17 in 10.0 mi Calm Calm - N/A   Mostly Cloudy
4:54 PM 84.9 °F 88.2 °F 68.0 °F 57% 30.17 in 10.0 mi ESE 3.5 mph - N/A Thunderstorm Mostly Cloudy
5:35 PM 75.2 °F - 69.8 °F 83% 30.21 in 10.0 mi SE 5.8 mph - 0.00 in Rain Light Rain
5:54 PM 75.0 °F - 68.0 °F 79% 30.18 in 10.0 mi Variable 4.6 mph - 0.00 in   Scattered Clouds
6:54 PM 75.0 °F - 69.1 °F 82% 30.19 in 10.0 mi Calm Calm - 0.01 in Rain Light Rain
7:27 PM 75.2 °F - 71.6 °F 89% 30.22 in 10.0 mi ENE 4.6 mph - 0.00 in Rain Light Rain
7:54 PM 75.0 °F - 70.0 °F 84% 30.20 in 10.0 mi NE 5.8 mph - 0.00 in   Mostly Cloudy
8:02 PM 75.2 °F - 69.8 °F 83% 30.23 in 10.0 mi NE 5.8 mph - N/A   Overcast
8:11 PM 75.2 °F - 69.8 °F 83% 30.23 in 10.0 mi NE 4.6 mph - N/A   Overcast
8:54 PM 73.9 °F - 69.1 °F 85% 30.20 in 10.0 mi North 3.5 mph - N/A   Overcast
9:12 PM 73.4 °F - 69.8 °F 88% 30.22 in 10.0 mi NNE 4.6 mph - N/A   Overcast
9:24 PM 73.4 °F - 69.8 °F 88% 30.22 in 10.0 mi NNE 5.8 mph - N/A   Overcast
9:34 PM 73.4 °F - 69.8 °F 88% 30.22 in 10.0 mi NE 6.9 mph - N/A   Overcast
9:54 PM 73.9 °F - 69.1 °F 85% 30.19 in 10.0 mi NE 6.9 mph - N/A   Overcast
10:10 PM 73.4 °F - 69.8 °F 88% 30.23 in 10.0 mi ENE 6.9 mph - N/A   Overcast
10:27 PM 73.4 °F - 69.8 °F 88% 30.23 in 10.0 mi NE 4.6 mph - 0.00 in Rain Light Rain
10:34 PM 73.4 °F - 69.8 °F 88% 30.23 in 10.0 mi NE 4.6 mph - 0.00 in   Overcast
10:44 PM 73.4 °F - 69.8 °F 88% 30.23 in 5.0 mi Variable 3.5 mph - 0.02 in Rain Rain
10:54 PM 73.9 °F - 70.0 °F 87% 30.20 in 4.0 mi East 4.6 mph - 0.06 in Rain Rain
11:34 PM 73.4 °F - 69.8 °F 88% 30.23 in 6.0 mi Calm Calm - 0.05 in Rain Light Rain
11:44 PM 73.4 °F - 69.8 °F 88% 30.23 in 10.0 mi Calm Calm - 0.05 in   Overcast
11:54 PM 73.9 °F - 70.0 °F 87% 30.20 in 10.0 mi East 3.5 mph - 0.05 in   Overcast